Location: *
(40.7113°N, 73.7007°W)
Time: 20:55:19
(UTC+00:00)

Daily predictions for brighter satellites

Satellite Brightness Start Highest point End
(mag) Time Altitude Azimuth Time Altitude Azimuth Time Altitude Azimuth
Lacrosse 5 3.7 22:31:44 10° NNW 22:35:00 17° NNE 22:38:17 10° ENE
Cosmos 1470 4.2 22:34:15 10° SSW 22:38:04 43° WNW 22:41:52 10° N
Cosmos 1825 Rocket 3.6 22:33:44 10° N 22:38:07 86° E 22:42:32 10° S
OAO 3 Rocket 4.1 22:34:02 10° WSW 22:38:40 43° S 22:43:21 10° ESE
Lacrosse 5 rocket 1.2 22:36:17 10° NW 22:40:04 85° SW 22:44:03 10° SE
Meteor 1-16 Rocket 4.2 22:35:11 10° S 22:40:37 57° E 22:45:56 10° NNE
Cosmos 968 Rocket 3.7 22:35:37 10° NNW 22:40:55 83° WSW 22:46:09 10° SSE
Cosmos 1953 Rocket 3.5 22:37:09 10° N 22:41:30 61° E 22:45:46 10° SSE
Cosmos 2239 Rocket 4.4 22:40:00 10° N 22:46:09 75° E 22:52:16 10° SSE
Cosmos 1242 Rocket 3.0 22:43:36 10° N 22:47:07 40° ENE 22:50:35 10° SSE
Cosmos 1626 4.1 22:44:37 10° NNW 22:48:02 35° W 22:51:26 10° SSW
Cosmos 1354 Rocket 4.2 22:42:56 10° NNW 22:48:12 82° WSW 22:53:25 10° SSE
BREEZE-M DEB (TANK) 3.1 22:41:51 10° SW 22:48:37 59° SSE 22:51:14 11° ENE
Cosmos 2278 Rocket 2.7 22:44:04 10° S 22:49:12 37° ESE 22:54:24 10° NE
ATLAS 5 CENTAUR R/B 3.7 22:46:08 10° W 22:49:39 24° NW 22:53:30 10° NNE
Cosmos 1726 2.2 22:46:33 10° S 22:50:05 49° E 22:53:38 10° NNE
Cosmos 1606 Rocket 3.9 22:46:01 10° SSW 22:50:24 70° W 22:54:46 10° N
Cosmos 1328 4.2 22:47:12 10° N 22:50:57 40° ENE 22:54:40 10° SSE
NOAA 12 4.1 22:47:01 10° SSE 22:52:17 90° E 22:57:38 10° NNW
CZ-4C R/B 3.8 22:46:03 10° NW 22:53:21 57° WSW 23:01:26 10° SSE
Ariane Rocket 4.2 22:49:44 10° ESE 22:53:26 21° ENE 22:57:10 10° NNE
Cosmos 1821 Rocket 4.1 22:48:16 10° N 22:54:24 84° W 23:00:35 10° S
Cosmos 1844 4.4 22:49:00 10° SW 22:54:37 60° WNW 23:00:21 10° NNE
Cosmos 1605 Rocket 4.4 22:49:03 10° N 22:54:49 40° ENE 23:00:30 10° SE
USA 238 DEB 4.2 22:54:58 10° S 23:00:58 37° ESE 23:07:06 10° NE
USA 238 4.2 22:55:07 10° S 23:01:05 36° ESE 23:07:12 10° NE
COBE Rocket 4.1 22:57:08 10° N 23:02:19 84° WNW 23:07:21 10° SSW
Cosmos 1934 Rocket 4.0 22:56:58 10° N 23:03:19 73° E 23:09:41 10° SSE
Cosmos 1271 Rocket 3.9 23:04:51 10° NNW 23:08:43 49° W 23:12:35 10° S
CSL-04 Rocket 3.7 23:03:58 10° SSE 23:09:24 60° ENE 23:14:49 10° N
Cosmos 1812 Rocket 4.5 23:06:18 10° SE 23:09:59 26° E 23:13:42 10° NNE
Cosmos 1535 Rocket 4.4 23:04:20 10° N 23:10:34 84° E 23:16:41 10° S
CZ-4 R/B 1.4 23:06:30 10° SSE 23:10:38 75° ENE 23:14:51 10° N
CZ-2D R/B 4.0 23:09:32 10° SE 23:12:56 31° ENE 23:16:23 10° N
Shenzhou-11 Module 2.1 23:12:59 10° WNW 23:15:42 53° N 23:16:48 29° ENE
Cosmos 1777 Rocket 4.1 23:11:00 10° N 23:16:07 53° ENE 23:21:10 10° SE
SKYMED 2 4.0 23:15:37 10° N 23:19:56 66° WNW 23:24:14 10° SSW
YAOGAN 1 2.5 23:15:43 10° SSE 23:20:01 72° ENE 23:24:21 10° N
NOAA 11 4.5 23:15:07 10° SE 23:20:14 44° ENE 23:25:22 10° N
Cosmos 1300 4.3 23:20:20 10° SE 23:21:46 18° SE 23:21:46 18° SE
YAOGAN 6 2.8 23:21:24 10° S 23:25:03 73° W 23:28:43 10° NNW
BREEZE-M DEB (TANK) 3.6 23:11:08 10° SW 23:25:17 79° SSE 23:28:00 22° ENE
NOSS 3-2 (A) 3.7 23:20:42 10° S 23:25:58 42° ESE 23:30:58 14° NE
SL-4 R/B 3.9 23:25:42 10° WNW 23:28:49 24° SW 23:31:45 10° S
Cosmos 1833 Rocket 2.9 23:25:03 10° NNW 23:30:28 47° ENE 23:34:15 19° SE
OAO 2 Rocket 4.5 23:27:26 10° W 23:32:17 37° SSW 23:35:36 18° SE
Cosmos 1703 3.7 23:30:53 10° NNW 23:34:47 65° W 23:38:38 10° S
H-2A R/B 3.7 23:37:38 17° NE 23:37:38 17° NE 23:40:06 10° NNE
Cosmos 2100 Rocket 4.5 23:31:40 10° N 23:37:16 35° ENE 23:40:02 24° ESE
NOSS 3-2 (C) 3.7 23:44:37 10° S 23:49:51 40° ESE 23:51:12 35° E
Cosmos 1153 Rocket 4.3 23:44:59 10° N 23:51:07 73° E 23:57:15 10° SSE
Cosmos 2058 4.4 23:48:18 10° N 23:50:20 24° NNE 23:50:20 24° NNE
Cosmos 44 4.2 23:48:11 10° S 23:51:31 30° SE 23:51:31 30° SE
